Location: Unspecified
(48.2082°N, 0.0000°E)
Time: 17:23:15
(UTC+00:00)

Tiros 1 despin weight - Pass Details

Date: 26 June 2019
Orbit: 594 x 642 km, 48.2° (Epoch: 17 July)

Event Time Altitude Azimuth Distance (km) Brightness Sun altitude
Rises 00:49:28 0° 273° (W) 2,847 ? -17.7°
Reaches altitude 10° 00:51:46 10° 273° (W) 1,938 ? -17.6°
Maximum altitude 00:56:13 90° 268° (W) 601 ? -17.4°
Drops below altitude 10° 01:00:39 10° 95° (E) 1,926 ? -17.3°
Sets 01:02:55 0° 95° (E) 2,827 ? -17.2°
